[心得] 還沒交車,卻先收2張超速罰單 QQ

看板 Car
作者
時間
留言 132則留言,97人參與討論
推噓 59  ( 72推 13噓 47→ )
我上週下訂了VW Tiguan 330TSI HL,在這之前我和老婆一共試駕了6台車。 並在板上發了下面兩篇文章。 [討論] 預算120-130w 平價休旅 (CRV,EC,Karoq) https://www.ptt.cc/bbs/car/M.1551772626.A.DDF.html [討論] 預算150w 中價位SUV (Kodiaq,Tiguan,CX5) https://www.ptt.cc/bbs/car/M.1552381920.A.604.html 結果今天不約而同收到Mazda及Skoda業務的通知,說在試駕時超速被開罰單了 QQ 這張是Skoda業務傳來的罰單照片 https://imgur.com/5xIrc8Z.png
Mazda業務說公司規定不能傳罰單照片給我, 只說也是在仰德大道二段29巷,下山方向被拍照的。 速限是40km/hr,被拍到58km/hr 連續兩天被同一台測速照相機吸走$1600 同事說還沒拿到車,就先吃罰單,真是有夠蝦~ 試駕兩台車下山時,老婆都是試開sport mode, 但因為試駕車上沒超速警示器,業代路況也不熟,所以不小心就超速了... $3200就這樣飛了,我老婆覺得很QQ 我想說這麼蝦的經驗也太難得,po文留個記念 也提醒一下想上陽明山試駕的板友們,下山要注意限速40啦! >,< -- ※ 發信站: 批踢踢實業坊(ptt.cc), 來自: 1.169.16.35 ※ 文章網址: https://www.ptt.cc/bbs/car/M.1553271584.A.6DD.html
1Fpradalove: 本日最好笑... 03/23 00:21
※ 編輯: staycation (1.169.16.35), 03/23/2019 00:23:36
2Fgodchildtw: 陽明山下山每一公里一支固定照相 03/23 00:23
3FCkMichael: 哈哈哈 03/23 00:23
4Fgx9900824: 這業務是跟鴿子合夥嗎...... 03/23 00:23
5Fgodchildtw: 連上山都有流動攤 03/23 00:24
6Fkakar0to: 不繳會怎麼樣嗎 車主也不是你 03/23 00:25
不繳的話,我猜車商會叫業代自己吞下去;業代沒賣到我車子,還要繳罰單也太衰。 於情於理,都應該是我們繳啦~ ※ 編輯: staycation (1.169.16.35), 03/23/2019 00:27:40
7FHo1liday: 下次記得試RAV4就不會超速了 03/23 00:26
為啥?
8Fqazwsx6107: 還好沒翻車 03/23 00:27
我老婆開sport mode,5xkm/hr 下山應該是不會翻車啦~ Kodiaq, CX5都算穩。
9Fbpwolf: 陽明山下山走中山北那條 幾乎沒測速好多了 03/23 00:29
10Fedwardhsu: mazda不傳給你還要你繳我覺得說不過去啦 03/23 00:29
業代說要去營業所看,不願意傳line給我,不知道是什麼原因。 不過這業代人不錯,我相信她不會坑我~ ※ 編輯: staycation (1.169.16.35), 03/23/2019 00:36:44
11Fluckysmallsu: 這應該要跟業代一人一半吧 03/23 00:30
哈哈,這樣業代一起QQ
12Fkurt911: 不傳還要繳啥?凡事講證據 03/23 00:30
業代是有說可以下週親自帶罰單來我公司給我看, 但我老婆上班地方離營業所不算太遠,打算下班順道過去兩家營業所繳罰單
13FMelofans: 有人可能不知道RAV4 2.0跑贏CX5 2.0齁 03/23 00:31
14FBMW220i: 應該是你交車了車商懶的理你吧 我之前試車被開車速業務自 03/23 00:32
15FBMW220i: 己吸收 後來我堅持不用 (業績都還沒給他做) 他才說公司有 03/23 00:32
16FBMW220i: 預算會繳這筆... 結果最後也是沒跟他買XD 03/23 00:33
真lucky
17Fw926316: 也太扯XD 03/23 00:34
18Frobinson: 真的會QQ 03/23 00:34
※ 編輯: staycation (1.169.16.35), 03/23/2019 00:42:48
19Frasen9: 這支固定式的你老婆每天開陽明山還需要超速警示喔? 03/23 00:38
這路段比我老婆工作的地方還要再上去,所以平常下班不會經過 ※ 編輯: staycation (1.169.16.35), 03/23/2019 00:44:18
20Finfo1994: 這業務菜鳥吧 你就跟他一人一半吧 03/23 00:44
他們兩個應該都不是業務菜鳥,服務態度也都不錯
22Faaqqqq1: 我也被這追焦過 03/23 00:46
這也太難發現了!
23Ffreshbox7: 業代是不是故意的阿...哪有帶人試車走仰德的 03/23 00:50
哈哈是我們要求的,因為買車後上下班會每天上下仰德
24FAtima: 這種路不熟也不看指標的 我能說是三寶嗎?? 03/23 00:51
25Fsanji175: 那隻相機超級準...... 03/23 00:51
真的,陰天也拍的很清晰
26FHaHaPoint: 我也5x被照過 超幹 03/23 00:52
5x被拍真的很QQ ※ 編輯: staycation (1.169.16.35), 03/23/2019 00:58:15
27Fdearevan: 拍謝 我笑了XDDDDDDDD 03/23 00:57
哈哈,沒關係,今天上午講給同事聽時,整個辦公室都笑了.. 沒想到下班前又被通知收一張,大家笑的更大聲了.. 怎麼會這麼蝦 XD ※ 編輯: staycation (1.169.16.35), 03/23/2019 01:00:07
28Fpenny31029: 老實說仰德有什麼好試的,說彎道沒彎道 速度也沒速度 03/23 01:00
29Fdearevan: 走自己常常會需要用到的路段很OK啦 而且仰德不好開 03/23 01:02
30FKittyDog: 如果你成交的話 我相信葉代會幫你繳 03/23 01:03
31Fmjh678: 有點難 頂多不附送油加滿 或是貴的贈品不送(或減送很多) 03/23 01:07
32Fmjh678: 業代才會願意幫繳 03/23 01:07
33FAudien: 那邊下坡而且限速40而已 沒看清楚很容易被拍 03/23 01:08
34Fmjh678: 而且要快速賀成交才有機會 否則業代也是叫你自己繳 03/23 01:08
35Fjunping: 就嶺頭附近最賺錢那隻啊,彎前看不見一轉彎就出現 03/23 01:19
36Flove52557: 仰德現在測速真的多到靠北,上禮拜下山放空也被閃一個 03/23 01:22
37Flove52557: ,輕含煞車控在四十幾五十出頭被拍真的很幹 03/23 01:23
38FChengwow: 哈哈哈買了罰越多 03/23 01:28
39FDudeFromMars: XDDD 03/23 01:30
40Fr19901016: 以後試車開手機測速軟體啊 03/23 01:39
41Fmokissru: 原來會有人在仰德試駕 03/23 01:41
42Fmokissru: 之前拍一兩張超速很賭爛就走後山了@@ 03/23 01:41
43FXR125: 上山有嗎? 03/23 02:05
44Fleoz69927: 貢獻一下國庫 03/23 02:15
45Fkirax20a: 讀了四年書 大概四年前快畢業前上山方向也會擺了 在林語 03/23 02:28
46Fkirax20a: 堂附近 03/23 02:28
47Fkirax20a: 最賺的應該還是格致那支固定式 明明大家都知道還是一天 03/23 02:29
48Fkirax20a: 到晚有人中獎 03/23 02:29
49Fonlytoro: 台北人嗎?這台照相機是全台最會賺錢的 03/23 02:56
50Fsa87a16: 上次大貨車下山撞死人,阿北不是發火,一直以來都是熱點 03/23 03:59
51Fsa87a16: 不肆嗎 03/23 03:59
52Ff11299723: 紅明顯 麥當勞開始到山下一共五台 03/23 04:12
53FHeeYoun: XDDDD第一次看到 03/23 04:34
54Fjoewu8267: 噓一堆不負責任的 03/23 04:45
55Fqq441122: 悲劇QQ 03/23 05:28
56Fsnowxmas: 也在仰德貢獻過… 03/23 06:01
57Fptthypocrite: 是說業務隨車時沒提醒嗎,幫qq 03/23 06:30
58Famou1030: 照鄉民的姿態,這台車被開過單就算是二手車了 03/23 06:36
59Famou1030: 應該要去退車,不然就圍廠了 03/23 06:36
60Fsolidmiss: 笑死 03/23 06:49
61Fsaintia: 拍拍! 03/23 07:06
62Feddy13: 每天開還會被照?那邊太多學生被撞了 03/23 07:07
63Fmeviswei: 台北人都知道那邊測速狗幹多而且路上都是標示你還可以被 03/23 07:25
64Fmeviswei: 開 03/23 07:25
65Fchang564: 士林北投人大都知道,你們外地人才不知吧,被開就幫QQ 03/23 07:27
66Fups: 厲害了 03/23 07:43
67Fcook321: 我也貢獻過。。 03/23 07:48
68Fcoolice0825: 哈哈好特別的經驗 03/23 07:52
69Fdoifish312: 警察局前也會攔闖紅燈xD看過不熟路況的大學生不小心 03/23 07:54
70Fdoifish312: 騎過去警察手就伸出來了 03/23 07:54
71Fpantw: 原po有責任讚,噓不繳的,將心比心吧! 03/23 07:57
72Fdasuperray: 先幫QQ,是說RAV4給媒體的試乘車都配嘎迷導航,或許可 03/23 07:59
73Fdasuperray: 以救你兩次 03/23 07:59
74FJuder: XDDDDDDDDD 03/23 08:04
75Fshengkao: 之前試車的時候VW的業務跟我說儘管踩,罰單公司會付XD可 03/23 08:08
76Fshengkao: 能每家的規定不一樣。恭喜原po買新車 03/23 08:08
77Fkenny890429: XDDDDDD恭喜! 03/23 08:13
78Fcrazytank: 狂! 03/23 08:18
79Flbjstar: 你們城市人還真會玩 03/23 08:45
80Fsai1268: 自己要求去的就無法了,不過仰德試不出什麼東西吧 03/23 08:48
81Finternate100: 以後就會記得了,多好 03/23 09:44
82Ffiresula: 第一次被拍超速就是陽明山機車滑行下山 03/23 09:46
83Facesslai: 有警告標誌,不知道是看不懂喔 03/23 09:50
84FYJM1106: 常常在死人的路段 40合理啊(然後還是一堆人千方百計的違 03/23 10:04
85FYJM1106: 規XD) 03/23 10:04
86FApologize924: 這標誌很好認啊 騎上百趟沒被開過 03/23 10:07
87FApologize924: 只有朋友中過竹子湖 03/23 10:08
88Fg44619: 有笑有推 03/23 10:25
89Fwindowdoor: 試車不用錢(?) 03/23 10:29
90Ftbere2002: 很好 該負責有擔當 沒肩膀的才會找理由 03/23 10:31
91Fxvid: 活該 嘻嘻 03/23 10:44
92FpiercingX: 麥當勞到山下現在連開50都不行 實在太多隻 03/23 10:44
93Fsun88990: 那麼多路不去,偏去仰德試車…呵呵 03/23 11:17
94Flucky945: 如果你買RAV4 開到公共危險罪業務都會幫你坐牢 太賺了 03/23 11:18
95Fkbdude: 上仰德還超速到底是多菜 03/23 12:06
96Flovecut: 現在下山變五台?以前唸書只有兩台 03/23 12:24
97Fmartinkyuu: 紅喜氣,希望原po早點入手愛車 03/23 12:45
98Fiamfreefrog: 還在等你330TSI HL試駕心得跟Cx5和Tiguan的最後抉擇 03/23 12:48
99Fiamfreefrog: ,可否分享一下,還有勝出的原因啊 03/23 12:48
100Fmp60707: 真的夠雖小 03/23 13:07
101Fk7202001: 最後果然選地瓜 還是比cx5優一點 03/23 13:26
102FCumCumCum: …… 03/23 13:27
103FORK: 第一次看到試駕還被開單的 03/23 13:30
104Fanagan: 細賀 03/23 13:35
105FHydra2563: 陽德那幾隻真的很哭… 03/23 13:46
106Fss70239ss: 夭壽,下山變五隻,十幾年前才兩隻 03/23 13:54
107Fasked: 哪台車這麼爛連時速表都沒 總不會駕駛是瞎子吧?瞎子還開車? 03/23 14:13
108Fkobevin: 呃...你算便宜行事吧!不然一堆免錢的測速軟體不錯用啊! 03/23 14:30
109Fkobevin: 幫QQ啦 03/23 14:30
110FBimmer3698: 仰德現在下山有5支測速啊,傻傻der 03/23 14:51
111FBimmer3698: 下山過消防隊、國小、半山腰派出所再過去一段的電線桿 03/23 14:53
112FBimmer3698: 旁、快到大右彎之前現在有間餐廳還是什麼的前面一點、 03/23 14:53
113FBimmer3698: 國安局前左彎電線桿旁 03/23 14:54
114FBimmer3698: 國小前那支是上次水泥預拌車大車禍之後裝的 03/23 14:55
115Fwuu831: 抱歉笑了 03/23 15:10
116Fkiss377017: 按照速限行駛,很難嗎! 03/23 16:25
117Fsuggestjoy: 仰德大道的超速寬容值沒那麼高 基本上gps超過12就拍下 03/23 17:08
118Fsuggestjoy: 去了 一般道路要到18 19才拍 03/23 17:08
119Fsuggestjoy: 不過也確實 那邊真的很多人沒測速路段開蠻快的 尤其年 03/23 17:11
120Fsuggestjoy: 輕人大學生騎車很胚 以前讀書騎快覺得沒甚麼 現在開車 03/23 17:11
121Fsuggestjoy: 覺得能活到現在真的運氣太好 騎車都慢很多了 03/23 17:11
122FBimmer3698: 其實撇開寬限值,腳踏車下山都不只40,遇過很多次。 03/23 17:57
123Fd5369a1c: 先恭喜交車,雖然前篇滿滿的消費CX5,但是真的喜歡VW就 03/23 21:22
124Fd5369a1c: 買,不要裝客觀 03/23 21:22
125Fd5369a1c: 黑人問號的有感科技感 03/23 21:24
126Fstableman302: 是不是有一篇刪掉了呀? 我記得有三部曲XD 03/24 01:02
127Fhakkiene: 不繳會怎樣?罰單轉給駕駛人 不然你以為影印駕照跟簽試乘 03/24 11:42
128Fhakkiene: 契約是簽好玩的嗎? 03/24 11:42
129Fshow9202: 有在看digimobee還敢買DSG哦 03/24 13:50
130Fkyoko22: 以管窺天,全台最賺錢測速這隻還排不上前10 03/24 22:55
131Fkyoko22: 一般道路+18~19?+12就很常見了,法定寬限才10… 03/24 22:58
132FCrybaby1020: 笑..... 07/31 11:28

car 熱門文章

[問車] 誠心發問這是什麼車
Car iverson7761 150留言 2019-10-18 12:13:35
[討論] Tiguan 19/20年式
Car Huangyugao 49留言 2019-10-18 11:52:20
[討論] Volvo V60 想換 小車
Car o2fsjo3sm 67留言 2019-10-18 03:40:50

最新熱門文章

[問卦] 以前歌詞很清純?
Gossiping todao 10留言 2019-10-19 13:38:20